When you browse on this site, cookies collect data to enhance your experience and personalize the content and advertising you see.
Visit our Privacy Policy to learn more. By continuing to use the site, you agree to this use of cookies and data.
EN

Hourly Weather Kweta

Today, 4 July, Saturday

Time Temperature Precipitation Wind Pressure Humidity
00:00 +25°C° 0 mm 1 mps 612 mmHg 19%
01:00 +24°C° 0 mm 1 mps 612 mmHg 21%
02:00 +24°C° 0 mm 1 mps 612 mmHg 23%
03:00 +24°C° 0 mm 1 mps 612 mmHg 25%
04:00 +23°C° 0 mm 1 mps 612 mmHg 35%
05:00 +26°C° 0 mm 1 mps 613 mmHg 30%
06:00 +28°C° 0 mm 1 mps 614 mmHg 25%
07:00 +31°C° 0 mm 1 mps 615 mmHg 20%
08:00 +32°C° 0 mm 2 mps 616 mmHg 17%
09:00 +35°C° 0 mm 3 mps 616 mmHg 13%
10:00 +37°C° 0 mm 4 mps 617 mmHg 9%
11:00 +37°C° 0 mm 5 mps 617 mmHg 8%
12:00 +39°C° 0 mm 6 mps 616 mmHg 6%
13:00 +40°C° 0 mm 7 mps 616 mmHg 5%
14:00 +40°C° 0 mm 7 mps 616 mmHg 5%
15:00 +39°C° 0 mm 6 mps 615 mmHg 5%
16:00 +39°C° 0 mm 6 mps 615 mmHg 6%
17:00 +36°C° 0 mm 5 mps 614 mmHg 7%
18:00 +34°C° 0 mm 4 mps 613 mmHg 8%
19:00 +31°C° 0 mm 3 mps 613 mmHg 10%
20:00 +30°C° 0 mm 3 mps 612 mmHg 11%
21:00 +29°C° 0 mm 2 mps 612 mmHg 13%
22:00 +28°C° 0 mm 2 mps 612 mmHg 14%
23:00 +26°C° 0 mm 1 mps 612 mmHg 16%

Tomorrow, 5 July, Sunday

Time Temperature Precipitation Wind Pressure Humidity
00:00 +25°C° 0 mm 1 mps 611 mmHg 18%
01:00 +24°C° 0 mm 1 mps 611 mmHg 19%
02:00 +24°C° 0 mm 1 mps 611 mmHg 21%
03:00 +23°C° 0 mm 1 mps 610 mmHg 23%
04:00 +23°C° 0 mm 2 mps 610 mmHg 25%
05:00 +25°C° 0 mm 2 mps 612 mmHg 24%
06:00 +27°C° 0 mm 2 mps 613 mmHg 22%
07:00 +29°C° 0 mm 2 mps 614 mmHg 21%
08:00 +30°C° 0 mm 4 mps 614 mmHg 16%
09:00 +33°C° 0 mm 5 mps 615 mmHg 12%
10:00 +34°C° 0 mm 6 mps 615 mmHg 8%
11:00 +35°C° 0 mm 7 mps 615 mmHg 7%
12:00 +35°C° 0 mm 7 mps 614 mmHg 7%
13:00 +35°C° 0 mm 7 mps 614 mmHg 6%
14:00 +35°C° 0 mm 6 mps 614 mmHg 6%
15:00 +35°C° 0 mm 6 mps 613 mmHg 6%
16:00 +35°C° 0 mm 5 mps 613 mmHg 5%
17:00 +32°C° 0 mm 4 mps 612 mmHg 7%
18:00 +29°C° 0 mm 3 mps 611 mmHg 8%
19:00 +26°C° 0 mm 2 mps 611 mmHg 9%
20:00 +25°C° 0 mm 1 mps 611 mmHg 10%
21:00 +25°C° 0 mm 1 mps 610 mmHg 11%
22:00 +24°C° 0 mm 1 mps 610 mmHg 11%
23:00 +23°C° 0 mm 1 mps 610 mmHg 17%

Day after tomorrow, 6 July, Monday

Time Temperature Precipitation Wind Pressure Humidity
00:00 +23°C° 0 mm 1 mps 610 mmHg 23%
01:00 +21°C° 0 mm 2 mps 610 mmHg 29%
02:00 +21°C° 0 mm 2 mps 610 mmHg 41%
03:00 +20°C° 0 mm 2 mps 610 mmHg 54%
04:00 +20°C° 0 mm 2 mps 610 mmHg 67%
05:00 +21°C° 0 mm 2 mps 611 mmHg 65%
06:00 +24°C° 0 mm 2 mps 612 mmHg 63%
07:00 +25°C° 0 mm 2 mps 613 mmHg 61%
08:00 +27°C° 0.3 mm 3 mps 614 mmHg 52%
09:00 +29°C° 0.3 mm 3 mps 615 mmHg 43%
10:00 +30°C° 0.3 mm 4 mps 615 mmHg 34%
11:00 +32°C° 0 mm 4 mps 615 mmHg 32%
12:00 +33°C° 0 mm 5 mps 615 mmHg 30%
13:00 +33°C° 0 mm 6 mps 614 mmHg 27%
14:00 +33°C° 0 mm 5 mps 614 mmHg 29%
15:00 +33°C° 0 mm 5 mps 614 mmHg 31%
16:00 +33°C° 0 mm 4 mps 613 mmHg 33%
17:00 +30°C° 0.1 mm 4 mps 613 mmHg 38%
18:00 +29°C° 0.1 mm 4 mps 613 mmHg 43%
19:00 +28°C° 0.1 mm 3 mps 613 mmHg 48%
20:00 +27°C° 0.4 mm 3 mps 613 mmHg 51%
21:00 +26°C° 0.4 mm 3 mps 613 mmHg 55%
22:00 +25°C° 0.4 mm 3 mps 614 mmHg 58%
23:00 +25°C° 0.1 mm 2 mps 613 mmHg 60%

7 July, Tuesday

Time Temperature Precipitation Wind Pressure Humidity
00:00 +24°C° 0.1 mm 2 mps 613 mmHg 62%
01:00 +24°C° 0.1 mm 1 mps 613 mmHg 64%
02:00 +23°C° 0 mm 1 mps 613 mmHg 67%
03:00 +22°C° 0 mm 1 mps 612 mmHg 70%
04:00 +22°C° 0 mm 1 mps 612 mmHg 73%
05:00 +22°C° 0 mm 0 mps 613 mmHg 65%
06:00 +23°C° 0 mm 0 mps 614 mmHg 56%
07:00 +25°C° 0 mm 0 mps 615 mmHg 48%
08:00 +27°C° 0 mm 0 mps 616 mmHg 41%
09:00 +30°C° 0 mm 1 mps 616 mmHg 34%
10:00 +32°C° 0 mm 1 mps 617 mmHg 26%
11:00 +34°C° 0 mm 2 mps 617 mmHg 25%
12:00 +34°C° 0 mm 2 mps 617 mmHg 23%
13:00 +35°C° 0 mm 3 mps 616 mmHg 21%
14:00 +34°C° 0 mm 3 mps 616 mmHg 22%
15:00 +34°C° 0 mm 3 mps 615 mmHg 23%
16:00 +34°C° 0 mm 3 mps 615 mmHg 24%
17:00 +31°C° 0 mm 2 mps 615 mmHg 25%
18:00 +30°C° 0 mm 2 mps 614 mmHg 26%
19:00 +29°C° 0 mm 2 mps 614 mmHg 27%
20:00 +27°C° 0 mm 2 mps 614 mmHg 33%
21:00 +26°C° 0 mm 1 mps 614 mmHg 38%
22:00 +25°C° 0 mm 1 mps 614 mmHg 43%
23:00 +25°C° 0 mm 1 mps 614 mmHg 46%

8 July, Wednesday

Time Temperature Precipitation Wind Pressure Humidity
00:00 +24°C° 0 mm 1 mps 613 mmHg 49%
01:00 +23°C° 0 mm 1 mps 613 mmHg 52%
02:00 +23°C° 0 mm 1 mps 613 mmHg 55%
03:00 +22°C° 0 mm 1 mps 613 mmHg 57%
04:00 +20°C° 0 mm 0 mps 613 mmHg 60%
05:00 +24°C° 0 mm 1 mps 614 mmHg 51%
06:00 +26°C° 0 mm 1 mps 615 mmHg 42%
07:00 +29°C° 0 mm 1 mps 616 mmHg 33%
08:00 +30°C° 0 mm 1 mps 617 mmHg 27%
09:00 +32°C° 0 mm 1 mps 617 mmHg 21%
10:00 +33°C° 0 mm 1 mps 618 mmHg 14%
11:00 +35°C° 0 mm 2 mps 618 mmHg 13%
12:00 +36°C° 0 mm 3 mps 617 mmHg 12%
13:00 +37°C° 0 mm 3 mps 617 mmHg 12%
14:00 +37°C° 0 mm 4 mps 617 mmHg 11%
15:00 +37°C° 0 mm 5 mps 617 mmHg 11%
16:00 +37°C° 0 mm 5 mps 616 mmHg 11%
17:00 +35°C° 0 mm 4 mps 616 mmHg 12%
18:00 +33°C° 0 mm 3 mps 615 mmHg 14%
19:00 +30°C° 0 mm 3 mps 615 mmHg 15%
20:00 +29°C° 0 mm 2 mps 615 mmHg 16%
21:00 +27°C° 0 mm 1 mps 614 mmHg 18%
22:00 +26°C° 0 mm 1 mps 614 mmHg 19%
23:00 +25°C° 0 mm 1 mps 613 mmHg 19%

9 July, Thursday

Time Temperature Precipitation Wind Pressure Humidity
00:00 +24°C° 0 mm 1 mps 613 mmHg 19%
01:00 +22°C° 0 mm 0 mps 613 mmHg 19%
02:00 +24°C° 0 mm 1 mps 612 mmHg 19%
03:00 +23°C° 0 mm 1 mps 612 mmHg 19%
04:00 +23°C° 0 mm 2 mps 612 mmHg 18%
05:00 +25°C° 0 mm 2 mps 613 mmHg 16%
06:00 +27°C° 0 mm 2 mps 614 mmHg 14%
07:00 +29°C° 0 mm 2 mps 615 mmHg 12%
08:00 +30°C° 0 mm 3 mps 615 mmHg 11%
09:00 +33°C° 0 mm 4 mps 615 mmHg 10%
10:00 +34°C° 0 mm 5 mps 616 mmHg 9%
11:00 +35°C° 0 mm 6 mps 615 mmHg 8%
12:00 +36°C° 0 mm 7 mps 615 mmHg 8%
13:00 +38°C° 0 mm 8 mps 615 mmHg 8%
14:00 +38°C° 0 mm 8 mps 615 mmHg 7%
15:00 +37°C° 0 mm 9 mps 614 mmHg 7%
16:00 +37°C° 0 mm 9 mps 613 mmHg 7%
17:00 +34°C° 0 mm 8 mps 613 mmHg 8%
18:00 +32°C° 0 mm 6 mps 612 mmHg 9%
19:00 +29°C° 0 mm 4 mps 611 mmHg 9%
20:00 +28°C° 0 mm 4 mps 611 mmHg 9%
21:00 +27°C° 0 mm 4 mps 611 mmHg 9%
22:00 +26°C° 0 mm 3 mps 611 mmHg 9%
23:00 +25°C° 0 mm 3 mps 610 mmHg 11%
Show more